Location: Gazon
(48.1318°N, 1.2708°W)
Time: 02:31:56
(UTC+00:00)

SL-08 RB Rocket - Pass Details

Date: 18 September 2020
Orbit: 647 x 684 km, 97.8° (Epoch: 29 October)

Event Time Altitude Azimuth Distance (km) Brightness Sun altitude
Exits shadow 19:32:41 - 165° (SSE) 2,579 6.4 -14.3°
Reaches altitude 10° 19:33:51 10° 165° (SSE) 2,103 6.0 -14.5°
Maximum altitude 19:38:27 89° 256° (WSW) 677 3.7 -15.2°
Drops below altitude 10° 19:43:03 10° 347° (NNW) 2,096 6.7 -15.9°
Sets 19:45:16 0° 347° (NNW) 3,007 7.6 -16.2°
